When you browse on this site, cookies collect data to enhance your experience and personalize the content and advertising you see.
Visit our Privacy Policy to learn more. By continuing to use the site, you agree to this use of cookies and data.
  • In Österreich
  • Länderverzeichnis
  • Für 7 Tage
  • Wassertemperatur
  • Wetterkarte
  • News
  • Widgets
  • user-avatar
    Anmelden

    Stündliche Wetter Arakaka

    Heute, 21 Januar, Dienstag

    Zeit Temperatur Niederschläge Wind Luftdruck Luftfeuchtigkeit
    00:00 +21°C° 0 mm 0 m/S 753 mmHg 98%
    01:00 +21°C° 0 mm 0 m/S 753 mmHg 98%
    02:00 +21°C° 0 mm 0 m/S 753 mmHg 99%
    03:00 +21°C° 0 mm 0 m/S 753 mmHg 99%
    04:00 +21°C° 0 mm 0 m/S 753 mmHg 99%
    05:00 +21°C° 0 mm 0 m/S 752 mmHg 99%
    06:00 +22°C° 0 mm 0 m/S 753 mmHg 96%
    07:00 +23°C° 0 mm 0 m/S 754 mmHg 94%
    08:00 +23°C° 0 mm 0 m/S 754 mmHg 91%
    09:00 +27°C° 0.1 mm 1 m/S 754 mmHg 82%
    10:00 +29°C° 0.1 mm 1 m/S 754 mmHg 72%
    11:00 +31°C° 0.1 mm 2 m/S 754 mmHg 62%
    12:00 +32°C° 0.1 mm 2 m/S 753 mmHg 60%
    13:00 +32°C° 0.1 mm 2 m/S 753 mmHg 57%
    14:00 +34°C° 0.1 mm 2 m/S 752 mmHg 55%
    15:00 +31°C° 0.2 mm 1 m/S 751 mmHg 63%
    16:00 +30°C° 0.2 mm 1 m/S 751 mmHg 71%
    17:00 +29°C° 0.2 mm 1 m/S 750 mmHg 80%
    18:00 +27°C° 0.1 mm 1 m/S 751 mmHg 85%
    19:00 +26°C° 0.1 mm 1 m/S 751 mmHg 90%
    20:00 +24°C° 0.1 mm 1 m/S 751 mmHg 95%
    21:00 +24°C° 0 mm 1 m/S 752 mmHg 97%
    22:00 +24°C° 0 mm 1 m/S 752 mmHg 98%
    23:00 +23°C° 0 mm 1 m/S 753 mmHg 99%

    Morgen, 22 Januar, Mittwoch

    Zeit Temperatur Niederschläge Wind Luftdruck Luftfeuchtigkeit
    00:00 +21°C° 0 mm 0 m/S 752 mmHg 99%
    01:00 +21°C° 0 mm 0 m/S 752 mmHg 99%
    02:00 +20°C° 0 mm 0 m/S 752 mmHg 99%
    03:00 +20°C° 0 mm 0 m/S 752 mmHg 99%
    04:00 +20°C° 0 mm 0 m/S 752 mmHg 99%
    05:00 +20°C° 0 mm 0 m/S 752 mmHg 99%
    06:00 +21°C° 0 mm 0 m/S 752 mmHg 97%
    07:00 +21°C° 0 mm 0 m/S 753 mmHg 95%
    08:00 +22°C° 0 mm 0 m/S 753 mmHg 93%
    09:00 +27°C° 0 mm 1 m/S 753 mmHg 80%
    10:00 +29°C° 0 mm 1 m/S 753 mmHg 68%
    11:00 +31°C° 0 mm 1 m/S 753 mmHg 55%
    12:00 +32°C° 0 mm 1 m/S 752 mmHg 50%
    13:00 +33°C° 0 mm 1 m/S 751 mmHg 46%
    14:00 +34°C° 0 mm 1 m/S 751 mmHg 41%
    15:00 +33°C° 0 mm 1 m/S 750 mmHg 45%
    16:00 +32°C° 0 mm 1 m/S 750 mmHg 50%
    17:00 +31°C° 0 mm 1 m/S 750 mmHg 54%
    18:00 +29°C° 0 mm 1 m/S 750 mmHg 64%
    19:00 +27°C° 0 mm 1 m/S 751 mmHg 73%
    20:00 +24°C° 0 mm 1 m/S 751 mmHg 83%
    21:00 +24°C° 0 mm 1 m/S 751 mmHg 87%
    22:00 +23°C° 0 mm 1 m/S 752 mmHg 92%
    23:00 +22°C° 0 mm 1 m/S 752 mmHg 96%

    übermorgen, 23 Januar, Donnerstag

    Zeit Temperatur Niederschläge Wind Luftdruck Luftfeuchtigkeit
    00:00 +22°C° 0 mm 1 m/S 752 mmHg 97%
    01:00 +20°C° 0 mm 0 m/S 751 mmHg 98%
    02:00 +20°C° 0 mm 0 m/S 751 mmHg 99%
    03:00 +20°C° 0 mm 0 m/S 751 mmHg 99%
    04:00 +20°C° 0 mm 0 m/S 751 mmHg 98%
    05:00 +20°C° 0 mm 0 m/S 751 mmHg 97%
    06:00 +23°C° 0 mm 1 m/S 752 mmHg 95%
    07:00 +24°C° 0 mm 1 m/S 752 mmHg 92%
    08:00 +25°C° 0 mm 1 m/S 753 mmHg 90%
    09:00 +26°C° 0 mm 1 m/S 753 mmHg 80%
    10:00 +28°C° 0 mm 1 m/S 753 mmHg 71%
    11:00 +29°C° 0 mm 1 m/S 753 mmHg 61%
    12:00 +31°C° 0 mm 1 m/S 752 mmHg 55%
    13:00 +32°C° 0 mm 1 m/S 751 mmHg 49%
    14:00 +33°C° 0 mm 1 m/S 751 mmHg 43%
    15:00 +33°C° 0 mm 1 m/S 750 mmHg 47%
    16:00 +32°C° 0 mm 1 m/S 750 mmHg 51%
    17:00 +31°C° 0 mm 1 m/S 750 mmHg 56%
    18:00 +29°C° 0 mm 1 m/S 750 mmHg 65%
    19:00 +27°C° 0 mm 1 m/S 750 mmHg 74%
    20:00 +25°C° 0 mm 1 m/S 751 mmHg 83%
    21:00 +24°C° 0 mm 1 m/S 751 mmHg 87%
    22:00 +23°C° 0 mm 1 m/S 752 mmHg 91%
    23:00 +23°C° 0 mm 1 m/S 752 mmHg 95%

    24 Januar, Freitag

    Zeit Temperatur Niederschläge Wind Luftdruck Luftfeuchtigkeit
    00:00 +22°C° 0 mm 1 m/S 752 mmHg 97%
    01:00 +20°C° 0 mm 0 m/S 752 mmHg 98%
    02:00 +19°C° 0 mm 0 m/S 751 mmHg 99%
    03:00 +19°C° 0 mm 0 m/S 752 mmHg 99%
    04:00 +19°C° 0 mm 0 m/S 752 mmHg 99%
    05:00 +19°C° 0 mm 0 m/S 752 mmHg 99%
    06:00 +22°C° 0 mm 1 m/S 752 mmHg 96%
    07:00 +23°C° 0 mm 1 m/S 753 mmHg 93%
    08:00 +24°C° 0 mm 1 m/S 754 mmHg 90%
    09:00 +26°C° 0 mm 1 m/S 754 mmHg 79%
    10:00 +28°C° 0 mm 1 m/S 754 mmHg 68%
    11:00 +31°C° 0 mm 2 m/S 754 mmHg 57%
    12:00 +32°C° 0 mm 1 m/S 753 mmHg 51%
    13:00 +33°C° 0 mm 1 m/S 752 mmHg 44%
    14:00 +34°C° 0 mm 1 m/S 752 mmHg 38%
    15:00 +33°C° 0 mm 1 m/S 751 mmHg 43%
    16:00 +32°C° 0 mm 1 m/S 751 mmHg 48%
    17:00 +31°C° 0 mm 1 m/S 751 mmHg 53%
    18:00 +29°C° 0 mm 1 m/S 751 mmHg 62%
    19:00 +27°C° 0 mm 1 m/S 752 mmHg 71%
    20:00 +25°C° 0 mm 1 m/S 752 mmHg 80%
    21:00 +24°C° 0 mm 1 m/S 753 mmHg 86%
    22:00 +23°C° 0 mm 1 m/S 753 mmHg 91%
    23:00 +23°C° 0 mm 1 m/S 753 mmHg 97%

    25 Januar, Samstag

    Zeit Temperatur Niederschläge Wind Luftdruck Luftfeuchtigkeit
    00:00 +22°C° 0 mm 1 m/S 753 mmHg 98%
    01:00 +22°C° 0 mm 1 m/S 753 mmHg 98%
    02:00 +22°C° 0 mm 1 m/S 752 mmHg 99%
    03:00 +20°C° 0 mm 0 m/S 753 mmHg 99%
    04:00 +20°C° 0 mm 0 m/S 753 mmHg 99%
    05:00 +20°C° 0 mm 0 m/S 753 mmHg 99%
    06:00 +21°C° 0 mm 0 m/S 753 mmHg 96%
    07:00 +24°C° 0 mm 1 m/S 754 mmHg 93%
    08:00 +25°C° 0 mm 1 m/S 754 mmHg 89%
    09:00 +27°C° 0 mm 1 m/S 754 mmHg 79%
    10:00 +29°C° 0 mm 1 m/S 754 mmHg 69%
    11:00 +31°C° 0 mm 2 m/S 754 mmHg 59%
    12:00 +32°C° 0 mm 2 m/S 754 mmHg 54%
    13:00 +34°C° 0 mm 2 m/S 753 mmHg 49%
    14:00 +35°C° 0 mm 2 m/S 753 mmHg 44%
    15:00 +34°C° 0 mm 2 m/S 752 mmHg 48%
    16:00 +32°C° 0 mm 1 m/S 752 mmHg 51%
    17:00 +31°C° 0 mm 1 m/S 751 mmHg 55%
    18:00 +29°C° 0 mm 1 m/S 752 mmHg 64%
    19:00 +27°C° 0 mm 1 m/S 752 mmHg 74%
    20:00 +24°C° 0 mm 1 m/S 753 mmHg 83%
    21:00 +23°C° 0 mm 1 m/S 753 mmHg 88%
    22:00 +23°C° 0 mm 1 m/S 753 mmHg 93%
    23:00 +22°C° 0 mm 1 m/S 754 mmHg 99%

    26 Januar, Sonntag

    Zeit Temperatur Niederschläge Wind Luftdruck Luftfeuchtigkeit
    00:00 +20°C° 0 mm 0 m/S 753 mmHg 99%
    01:00 +19°C° 0 mm 0 m/S 753 mmHg 99%
    02:00 +19°C° 0 mm 0 m/S 753 mmHg 99%
    03:00 +19°C° 0 mm 0 m/S 753 mmHg 99%
    04:00 +19°C° 0 mm 0 m/S 753 mmHg 99%
    05:00 +19°C° 0 mm 0 m/S 753 mmHg 99%
    06:00 +20°C° 0 mm 0 m/S 753 mmHg 96%
    07:00 +21°C° 0 mm 0 m/S 754 mmHg 92%
    08:00 +22°C° 0 mm 0 m/S 754 mmHg 89%
    09:00 +25°C° 0 mm 0 m/S 754 mmHg 80%
    10:00 +27°C° 0 mm 0 m/S 754 mmHg 71%
    11:00 +31°C° 0 mm 1 m/S 754 mmHg 61%
    12:00 +32°C° 0.1 mm 1 m/S 753 mmHg 58%
    13:00 +30°C° 0.1 mm 0 m/S 753 mmHg 56%
    14:00 +31°C° 0.1 mm 0 m/S 752 mmHg 53%
    15:00 +32°C° 0.1 mm 1 m/S 751 mmHg 60%
    16:00 +30°C° 0.1 mm 1 m/S 751 mmHg 68%
    17:00 +29°C° 0.1 mm 2 m/S 751 mmHg 75%
    18:00 +27°C° 0.1 mm 2 m/S 751 mmHg 83%
    19:00 +26°C° 0.1 mm 1 m/S 752 mmHg 90%
    20:00 +24°C° 0.1 mm 1 m/S 753 mmHg 97%
    21:00 +24°C° 0 mm 1 m/S 753 mmHg 98%
    22:00 +24°C° 0 mm 1 m/S 753 mmHg 98%
    23:00 +22°C° 0 mm 0 m/S 754 mmHg 99%
    Mehr zeigen